Regional Weather Roundup
Issued by NWS

Home | Current Version | Previous Version | Text Only | Print | Product List | Glossary Off
Versions: 1 2 3 4 5 6 7 8 9 10 11 12 13 14 15 16 17 18 19 20 21 22 23 24 25 26 27 28 29 30 31 32 33 34 35 36 37 38 39 40 41 42 43 44 45 46 47 48 49 50

000
ASUS43 KMKX 301811
RWRWI

WISCONSIN REGIONAL WEATHER ROUNDUP
NATIONAL WEATHER SERVICE MILWAUKEE/SULLIVAN WI
100 PM CDT TUE JUN 30 2015

NOTE: "FAIR" INDICATES FEW OR NO CLOUDS BELOW 12,000 FEET WITH NO
SIGNIFICANT WEATHER AND/OR OBSTRUCTIONS TO VISIBILITY.

WIZ001-002-006>008-014>016-023>028-301900-
NORTHWEST WISCONSIN

CITY           SKY/WX    TMP DP  RH WIND       PRES   REMARKS
SUPERIOR ARPT  SUNNY     60  48  66 NE9       29.99S
6HR MIN TEMP:  57; 6HR MAX TEMP:  61;

ASHLAND        CLOUDY    59  49  69 NE6       30.00S
6HR MIN TEMP:  53; 6HR MAX TEMP:  59;

HAYWARD        PTSUNNY   63  52  67 E9        29.97F
6HR MIN TEMP:  55; 6HR MAX TEMP:  63;

SIREN          PTSUNNY   67  53  61 NE5       29.96F
6HR MIN TEMP:  58; 6HR MAX TEMP:  67;

CUMBERLAND     MOSUNNY   64  52  63 N8        29.95F
RICE LAKE      MOSUNNY   68  54  61 N12       29.95F
6HR MIN TEMP:  60; 6HR MAX TEMP:  68;

CHETEK         MOSUNNY   67  55  65 N5        29.93F
6HR MIN TEMP:  60; 6HR MAX TEMP:  67;

LADYSMITH      MOSUNNY   66  54  64 N9G17     29.95F
6HR MIN TEMP:  59; 6HR MAX TEMP:  66;

EAU CLAIRE     SUNNY     71  55  56 N12       29.92S
6HR MIN TEMP:  60; 6HR MAX TEMP:  72;

MENOMONIE      MOSUNNY   71  55  58 N7        29.93S
6HR MIN TEMP:  60; 6HR MAX TEMP:  71;

NEW RICHMOND   MOSUNNY   70  55  58 N5        29.95S
6HR MIN TEMP:  60; 6HR MAX TEMP:  70;

OSCEOLA        PTSUNNY   70  56  62 NE8       29.97S
6HR MIN TEMP:  59; 6HR MAX TEMP:  71;

$$

WIZ003>005-009-010-017-018-301900-
NORTH CENTRAL WISCONSIN

CITY           SKY/WX    TMP DP  RH WIND       PRES   REMARKS
MANITOWISH WTR CLOUDY    57  52  81 NE8       29.95S
6HR MIN TEMP:  51; 6HR MAX TEMP:  57;

ARBOR VITAE    CLOUDY    58  51  78 N14       29.95S
6HR MIN TEMP:  55; 6HR MAX TEMP:  58;

WOODRUFF       CLOUDY    58  51  78 N14       29.95S
6HR MIN TEMP:  55; 6HR MAX TEMP:  58;

RHINELANDER    CLOUDY    59  50  72 VRB7G16   29.94S
6HR MIN TEMP:  55; 6HR MAX TEMP:  60;

EAGLE RIVER    CLOUDY    56  50  80 N9        29.94S
6HR MIN TEMP:  52; 6HR MAX TEMP:  56;

LAND O LAKES   CLOUDY    55  49  81 N12G17    29.95F
6HR MIN TEMP:  51; 6HR MAX TEMP:  55; 6HR PCP:  0.01;

PHILLIPS       CLOUDY    60  51  73 N7        29.94F
6HR MIN TEMP:  54; 6HR MAX TEMP:  60;

TOMAHAWK       CLOUDY    60  51  72 N6        29.94S
6HR MIN TEMP:  56; 6HR MAX TEMP:  61;

MEDFORD        CLOUDY    62  52  70 N12G17    29.93S
6HR MIN TEMP:  58; 6HR MAX TEMP:  64;

MERRILL        CLOUDY    63  53  70 N13       29.93S
6HR MIN TEMP:  58; 6HR MAX TEMP:  65;

$$

WIZ029-030-035-036-043>047-301900-
CENTRAL WISCONSIN

CITY           SKY/WX    TMP DP  RH WIND       PRES   REMARKS
WAUSAU         CLOUDY    65  52  62 N13       29.89R
6HR MIN TEMP:  61; 6HR MAX TEMP:  69;

MOSINEE        NOT AVBL
MARSHFIELD     CLOUDY    68  53  58 NW13      29.90F
6HR MIN TEMP:  63; 6HR MAX TEMP:  70;

STEVENS POINT  CLOUDY    67  53  61 NW8       29.89R
6HR MIN TEMP:  59; 6HR MAX TEMP:  68;

WAUPACA        PTSUNNY   72  56  57 NE9G16    29.87S
6HR MIN TEMP:  61; 6HR MAX TEMP:  74;

WAUTOMA        MOSUNNY   72  57  58 N13       29.86F
6HR MIN TEMP:  62; 6HR MAX TEMP:  73;

WISC RAPIDS    PTSUNNY   70  54  56 N13       29.90S
6HR MIN TEMP:  62; 6HR MAX TEMP:  73;

CAMP DOUGLAS   PTSUNNY   73  68  83 NW9       29.88S
$$

WIZ011>013-019>022-031-037>040-048>050-301900-
NORTHEAST WISCONSIN

CITY           SKY/WX    TMP DP  RH WIND       PRES   REMARKS
ANTIGO         CLOUDY    60  54  78 N12       29.91S
SHAWANO        CLOUDY    68  55  63 N8        29.87S
6HR MIN TEMP:  62; 6HR MAX TEMP:  69;

OCONTO         CLOUDY    66  56  71 N7        29.85S
6HR MIN TEMP:  60; 6HR MAX TEMP:  66;

STURGEON BAY   CLOUDY    61  54  77 N14       29.88R
6HR MIN TEMP:  57; 6HR MAX TEMP:  63;

GREEN BAY      CLOUDY    67  57  70 N12       29.86R
6HR MIN TEMP:  63; 6HR MAX TEMP:  69;

MANITOWOC      CLOUDY    62  58  86 MISG      29.85R
6HR MIN TEMP:  61; 6HR MAX TEMP:  70;

APPLETON       CLOUDY    66  55  68 N12       29.86S
CLINTONVILLE   CLOUDY    68  54  60 N7        29.86F
OSHKOSH        CLOUDY    69  57  65 NW13      29.84S
6HR MIN TEMP:  62; 6HR MAX TEMP:  71;

$$

WIZ032>034-041-042-053>061-301900-
SOUTHWEST WISCONSIN

CITY           SKY/WX    TMP DP  RH WIND       PRES   REMARKS
LA CROSSE      CLOUDY    69  60  73 NW9       29.90F
6HR MIN TEMP:  61; 6HR MAX TEMP:  70;

SPARTA         CLOUDY    69  57  65 NW9       29.90F
6HR MIN TEMP:  56; 6HR MAX TEMP:  71;

VIROQUA        CLOUDY    68  59  73 N13       29.91F
6HR MIN TEMP:  59; 6HR MAX TEMP:  69;

BOSCOBEL       PTSUNNY   74  61  63 VRB6      29.89F
6HR MIN TEMP:  60; 6HR MAX TEMP:  75;

PRAIRIE DU CHI MOSUNNY   73  60  65 NW8       29.88S
6HR MIN TEMP:  59; 6HR MAX TEMP:  73;

PLATTEVILLE    MOSUNNY   71  64  76 N9        29.88S
6HR MIN TEMP:  60; 6HR MAX TEMP:  71; 6HR PCP:  0.01;

$$

WIZ056-057-062-063-064-067-068-301900-
SOUTH CENTRAL WISCONSIN

CITY           SKY/WX    TMP DP  RH WIND       PRES   REMARKS
REEDSBURG      PTSUNNY   71  60  68 NW13      29.87S
6HR MIN TEMP:  58; 6HR MAX TEMP:  72;

BARABOO/DELLS  PTSUNNY   71  57  61 N7        29.87S
6HR MIN TEMP:  58; 6HR MAX TEMP:  72;

LONE ROCK      PTSUNNY   72  60  66 NW7       29.88S
6HR MIN TEMP:  61; 6HR MAX TEMP:  73;

MINERAL POINT  PTSUNNY   70  61  73 NW9       29.89S
MADISON        PTSUNNY   72  60  66 N13       29.85F
6HR MIN TEMP:  60; 6HR MAX TEMP:  73;

MIDDLETON      CLOUDY    72  59  64 NW6       29.87S
6HR MIN TEMP:  61; 6HR MAX TEMP:  73;

WATERTOWN      CLOUDY    71  61  71 N9        29.84F
6HR MIN TEMP:  59; 6HR MAX TEMP:  71;

MONROE         PTSUNNY   68  61  77 NW6       29.87S
JANESVILLE     PTSUNNY   72  61  68 N12       29.85S
$$

WIZ051-052-058>065-066-070>072-301900-
SOUTHEAST WISCONSIN

CITY           SKY/WX    TMP DP  RH WIND       PRES   REMARKS
MILWAUKEE      CLOUDY    66  58  75 NE15      29.82R
6HR MIN TEMP:  63; 6HR MAX TEMP:  74;

WAUKESHA       PTSUNNY   70  59  68 NW12      29.84F
MILWAUKEE/TIMM PTSUNNY   72  57  60 N15       29.83R
RACINE         CLOUDY    73  58  59 NW12      29.83S
6HR MIN TEMP:  62; 6HR MAX TEMP:  74;

BURLINGTON     PTSUNNY   70  59  69 NW13G18   29.83F
6HR MIN TEMP:  59; 6HR MAX TEMP:  70;

KENOSHA        PTSUNNY   73  60  63 NW13      29.82F
6HR MIN TEMP:  61; 6HR MAX TEMP:  73;

FOND DU LAC    CLOUDY    71  57  61 NW15      29.85S
6HR MIN TEMP:  61; 6HR MAX TEMP:  73;

SHEBOYGAN      CLOUDY    65  60  84 NE9       29.84R
6HR MIN TEMP:  63; 6HR MAX TEMP:  70;

WEST BEND      CLOUDY    70  57  64 NW14G21   29.83S
JUNEAU         CLOUDY    68  59  73 NW9       29.86F
6HR MIN TEMP:  59; 6HR MAX TEMP:  68;

$$

LSZ147-162-301900-
LAKE SUPERIOR

STATION/POSITION TIME  TEMP    WIND        PRES    WAVE
                       AIR SEA DIR/SP/G            HT/PER
                 (UTC) (F)     (DEG/KT/KT) (MB)    (FT/S)
W MID LAKE BUOY  1750   43 39   80/  8/  8 1016.3F   1
DEVILS ISLAND    1800   54     110/  9/ 11 1016.5S
SAXON HARBOR     1700   54      50/ 12/ 13 1015.9
$$

LMZ867-665-643>646-301900-
LAKE MICHIGAN

STATION/POSITION TIME  TEMP    WIND        PRES    WAVE
                       AIR SEA DIR/SP/G            HT/PER
                 (UTC) (F)     (DEG/KT/KT) (MB)    (FT/S)



USA.gov is the U.S. government's official web portal to all federal, state and local government web resources and services.